Regional Weather Roundup
Issued by NWS

Home | Current Version | Previous Version | Text Only | Print | Product List | Glossary Off
Versions: 1 2 3 4 5 6 7 8 9 10 11 12 13 14 15 16 17 18 19 20 21 22 23 24 25 26 27 28 29 30 31 32 33 34 35 36 37 38 39 40 41 42 43 44 45 46 47 48 49 50

000
ASUS45 KABQ 191810
RWRNM
NEW MEXICO REGIONAL WEATHER ROUNDUP
NATIONAL WEATHER SERVICE ALBUQUERQUE NM
1200 PM MDT THU OCT 19 2017

NOTE: "FAIR" MEANS FEW OR NO CLOUDS BELOW 12,000 FEET AGL WITH NO
       SIGNIFICANT WEATHER OR OBSTRUCTIONS TO VISION.

      THIS PRODUCT IS RELEASED AS TWO VERSIONS.  ONE VERSION NEAR
      THE TOP OF THE HOUR CONTAINING PRELIMINARY DATA FROM ALBUQUERQUE
      AND OTHER STATIONS.  A FINAL VERSION WITH ADDITIONAL DATA IS
      ISSUED ABOUT 10 MINUTES AFTER THE HOUR.

NMZ501-503-504-510>518-191900-
NORTHWEST PLATEAU/NORTHCENTRAL MOUNTAINS

CITY           SKY/WX    TMP DP  RH WIND       PRES   REMARKS
FARMINGTON     FAIR      64  23  21 E7        30.13F
6HR MIN TEMP:  42; 6HR MAX TEMP:  65;

LOS ALAMOS     FAIR      59  22  24 CALM      30.24F
SANTA FE       FAIR      66  23  19 VRB3      30.18F
6HR MIN TEMP:  42; 6HR MAX TEMP:  66;

TAOS           FAIR      62  22  21 CALM      30.25F
ANGEL FIRE     FAIR      59  24  25 CALM      30.28F

$$
NMZ402-403-502-505>509-191900-
WESTCENTRAL MOUNTAINS/SOUTHWEST MOUNTAINS

CITY           SKY/WX    TMP DP  RH WIND       PRES   REMARKS
GALLUP         FAIR      67  33  28 NE6       30.18F
6HR MIN TEMP:  43; 6HR MAX TEMP:  67; 6HR PCP: TRACE;

GRANTS         PTSUNNY   55  39  55 N5        30.22F
SILVER CITY    PTSUNNY   72  47  40 S9        30.14F

$$
NMZ407-409-411-412-191900-
SOUTHERN DESERTS

CITY           SKY/WX    TMP DP  RH WIND       PRES   REMARKS
DEMING         FAIR      75  50  41 CALM      30.09F
6HR MIN TEMP:  53; 6HR MAX TEMP:  75;

LAS CRUCES     FAIR      76  51  40 SE12G17   30.11F
HOLLOMAN AFB   FAIR      70  50  47 SW8       30.11F
ALAMOGORDO     FAIR      73  48  40 S12       30.11S
T OR C         FAIR      73  48  41 VRB3      30.10F
6HR MIN TEMP:  55; 6HR MAX TEMP:  73;


$$
NMZ519>523-191900-
CENTRAL VALLEYS/CENTRAL HIGHLANDS

CITY           SKY/WX    TMP DP  RH WIND       PRES   REMARKS
ALBUQUERQUE    PTSUNNY   64  41  42 VRB5      30.16F
6HR MIN TEMP:  51; 6HR MAX TEMP:  65;

DOUBLE EAGLE   PTSUNNY   64  36  34 CALM      30.18F
MORIARTY ARPT  FAIR      68  39  34 SE6       30.19F
6HR MIN TEMP:  36; 6HR MAX TEMP:  69;

CLINES CORNERS NOT AVBL
BELEN          FAIR      68  28  22 CALM      30.15F
6HR MIN TEMP:  46; 6HR MAX TEMP:  68;

SOCORRO        FAIR      66  42  42 CALM      30.13F
6HR MIN TEMP:  51; 6HR MAX TEMP:  66;


$$
NMZ524>526-539-540-191900-
SOUTHCENTRAL MOUNTAINS

CITY           SKY/WX    TMP DP  RH WIND       PRES   REMARKS
RUIDOSO        FAIR      63  41  45 SW13      30.25F

$$
NMZ527>531-191900-
NORTHEAST HIGHLANDS/NORTHEAST PLAINS

CITY           SKY/WX    TMP DP  RH WIND       PRES   REMARKS
LAS VEGAS      FAIR      68  24  19 SW13G20   30.20F
6HR MIN TEMP:  36; 6HR MAX TEMP:  68;

RATON          FAIR      71  22  15 VRB7      30.14F
6HR MIN TEMP:  34; 6HR MAX TEMP:  71;

CLAYTON        NOT AVBL

$$
NMZ532>537-191900-
EASTCENTRAL PLAINS

CITY           SKY/WX    TMP DP  RH WIND       PRES   REMARKS
SANTA ROSA     FAIR      71  34  25 S3        30.11S
TUCUMCARI      FAIR      71  46  40 SE6       30.06F
6HR MIN TEMP:  42; 6HR MAX TEMP:  72;

CANNON AFB     MOSUNNY   68  52  56 SW7       30.11F
6HR MIN TEMP:  47; 6HR MAX TEMP:  68;

CLOVIS AIRPORT FAIR      68  50  52 SW12      30.11F

$$
NMZ028-029-538-191900-
SOUTHEAST PLAINS

CITY           SKY/WX    TMP DP  RH WIND       PRES   REMARKS
ROSWELL        CLOUDY    62  49  62 CALM      30.10S
6HR MIN TEMP:  53; 6HR MAX TEMP:  62;

ARTESIA        FAIR      66  52  59 CALM      30.11S
CARLSBAD       LGT RAIN  65  63  93 NE7       30.08F
6HR MIN TEMP:  55; 6HR MAX TEMP:  65; 6HR PCP:  0.07;

HOBBS          PTSUNNY   63  50  63 S6        30.11F


$$




USA.gov is the U.S. government's official web portal to all federal, state and local government web resources and services.